Weather History for Blythe, CA

Change the Weather History Date:

Thursday, July 18, 2013

  Actual Average Record
Temperature  
Mean Temperature 98 °F -  
Max Temperature 111 °F 106 °F 118 °F (2005)
Min Temperature 84 °F 80 °F 71 °F (2012)
Cooling Degree Days 32    
Growing Degree Days 48 (Base 50)    
Moisture  
Dew Point 51 °F    
Average Humidity 20    
Maximum Humidity 31    
Minimum Humidity 10    
Precipitation  
Precipitation 0.00 in - - ()
Sea Level Pressure  
Sea Level Pressure 29.75 in    
Wind  
Wind Speed 5 mph (ENE)    
Max Wind Speed 15 mph    
Max Gust Speed -    
Visibility 10 miles    
Events      
Averages and records for this station are not official NWS values.
T = Trace of Precipitation, MM = Missing Value Source: NWS Daily Summary

Daily Weather History Graph

Daily Weather History Graph

Search for Another Location

Airport:

Trip Planner

Search our weather history database for the weather conditions in past years. The results will help you decide how hot, cold, wet, or windy it might be!

Date:

Astronomy

Jul. 18, 2013 Rise Set
Actual Time 5:41 AM PDT 7:48 PM PDT
Civil Twilight 5:13 AM PDT 8:16 PM PDT
Nautical Twilight 4:39 AM PDT 8:50 PM PDT
Astronomical Twilight 4:02 AM PDT 9:27 PM PDT
Moon 3:51 PM PDT (7/18) 1:32 AM PDT (7/18)
Length of Visible Light 15h 02m
Length of Day
14h 06m
Waxing Gibbous, 78% of the Moon is Illuminated
Jul 18
Waxing Gibbous
Jul 22
Full
Jul 29
Last Quarter
Aug 6
New
Aug 14
First Quarter

Hourly Weather History & Observations

Time (PDT) Temp. Heat Index Dew Point Humidity Pressure Visibility Wind Dir Wind Speed Gust Speed Precip Events Conditions
12:52 AM 91.9 °F - 46.9 °F 21% 29.79 in 10.0 mi South 6.9 mph - N/A   Clear
1:52 AM 91.9 °F - 44.1 °F 19% 29.78 in 10.0 mi SSW 6.9 mph - N/A   Clear
2:52 AM 89.1 °F - 44.1 °F 21% 29.77 in 10.0 mi NNE 3.5 mph - N/A   Clear
3:52 AM 88.0 °F - 48.0 °F 25% 29.77 in 10.0 mi Calm Calm - N/A   Clear
4:52 AM 87.1 °F - 45.0 °F 23% 29.78 in 10.0 mi North 3.5 mph - N/A   Clear
5:52 AM 84.0 °F - 45.0 °F 25% 29.80 in 10.0 mi Calm Calm - N/A   Clear
6:52 AM 88.0 °F - 42.1 °F 20% 29.81 in 10.0 mi North 8.1 mph - N/A   Clear
7:52 AM 93.9 °F - 35.1 °F 13% 29.83 in 10.0 mi North 4.6 mph - N/A   Clear
8:52 AM 98.1 °F - 33.1 °F 10% 29.83 in 10.0 mi Calm Calm - N/A   Clear
9:52 AM 102.0 °F - 44.1 °F 14% 29.83 in 10.0 mi North 4.6 mph - N/A   Clear
10:52 AM 102.0 °F 101.6 °F 57.9 °F 23% 29.82 in 10.0 mi Calm Calm - N/A   Clear
11:52 AM 106.0 °F 104.5 °F 54.0 °F 18% 29.80 in 10.0 mi Variable 4.6 mph - N/A   Clear
12:52 PM 106.0 °F 106.4 °F 57.9 °F 21% 29.78 in 10.0 mi Variable 6.9 mph - N/A   Clear
1:52 PM 109.0 °F 108.1 °F 55.9 °F 17% 29.76 in 10.0 mi Variable 6.9 mph - N/A   Scattered Clouds
2:52 PM 111.0 °F 110.1 °F 55.0 °F 16% 29.72 in 10.0 mi East 6.9 mph - N/A   Scattered Clouds
3:52 PM 111.0 °F 110.1 °F 55.0 °F 16% 29.68 in 10.0 mi NNW 5.8 mph - N/A   Mostly Cloudy
4:52 PM 111.9 °F 111.4 °F 55.0 °F 16% 29.66 in 10.0 mi Variable 6.9 mph - N/A   Mostly Cloudy
5:52 PM 111.0 °F 110.1 °F 55.0 °F 16% 29.65 in 10.0 mi East 8.1 mph - N/A   Scattered Clouds
6:52 PM 111.0 °F 109.3 °F 54.0 °F 15% 29.66 in 10.0 mi East 9.2 mph - N/A   Partly Cloudy
7:52 PM 109.0 °F 108.1 °F 55.9 °F 17% 29.67 in 10.0 mi East 6.9 mph - N/A   Clear
8:52 PM 106.0 °F 106.4 °F 59.0 °F 21% 29.68 in 10.0 mi South 4.6 mph - N/A   Partly Cloudy
9:52 PM 102.9 °F 103.6 °F 60.1 °F 24% 29.70 in 10.0 mi ENE 9.2 mph - N/A   Clear
10:52 PM 99.0 °F 99.5 °F 61.0 °F 28% 29.71 in 10.0 mi ENE 9.2 mph - N/A   Clear
11:52 PM 97.0 °F 97.8 °F 62.1 °F 31% 29.72 in 10.0 mi SSE 15.0 mph - N/A   Clear